TimeHST,TemperatureF,Dew PointF,Humidity,Sea Level PressureIn,VisibilityMPH,Wind Direction,Wind SpeedMPH,Gust SpeedMPH,PrecipitationIn,Events,Conditions,WindDirDegrees,DateUTC
12:53 AM,75.9,68.0,76,30.06,10.0,ENE,11.5,-,N/A,,Scattered Clouds,60,2012-09-17 10:53:00
1:53 AM,75.9,66.9,74,30.04,10.0,ENE,9.2,-,N/A,,Partly Cloudy,60,2012-09-17 11:53:00
2:53 AM,75.9,66.9,74,30.04,10.0,ENE,13.8,20.7,N/A,,Mostly Cloudy,60,2012-09-17 12:53:00
3:53 AM,73.0,66.0,79,30.03,10.0,North,4.6,-,0.00,,Mostly Cloudy,360,2012-09-17 13:53:00
4:53 AM,72.0,66.9,84,30.03,10.0,NW,5.8,-,0.04,,Overcast,310,2012-09-17 14:53:00
5:53 AM,72.0,66.9,84,30.04,10.0,North,4.6,-,N/A,,Mostly Cloudy,10,2012-09-17 15:53:00
6:04 AM,73.4,68.0,83,30.04,10.0,ENE,11.5,-,N/A,,Mostly Cloudy,60,2012-09-17 16:04:00
6:39 AM,75.2,68.0,78,30.04,10.0,ENE,11.5,-,N/A,,Mostly Cloudy,70,2012-09-17 16:39:00
6:51 AM,75.2,68.0,78,30.05,10.0,NE,10.4,-,N/A,,Scattered Clouds,50,2012-09-17 16:51:00
6:53 AM,75.0,68.0,79,30.04,10.0,NE,11.5,-,N/A,,Scattered Clouds,50,2012-09-17 16:53:00
7:53 AM,77.0,66.0,69,30.05,10.0,ENE,11.5,-,N/A,,Partly Cloudy,70,2012-09-17 17:53:00
8:53 AM,80.1,68.0,67,30.06,10.0,ENE,13.8,-,N/A,,Scattered Clouds,60,2012-09-17 18:53:00
9:53 AM,81.0,66.9,62,30.06,10.0,ENE,11.5,-,N/A,,Partly Cloudy,70,2012-09-17 19:53:00
10:53 AM,82.0,68.0,62,30.06,10.0,ENE,13.8,-,N/A,,Partly Cloudy,60,2012-09-17 20:53:00
11:53 AM,82.9,68.0,60,30.05,10.0,ENE,12.7,-,N/A,,Partly Cloudy,60,2012-09-17 21:53:00
12:53 PM,84.0,69.1,61,30.03,10.0,NE,13.8,-,N/A,,Mostly Cloudy,50,2012-09-17 22:53:00
1:30 PM,82.4,68.0,62,30.02,10.0,NE,11.5,-,N/A,,Scattered Clouds,50,2012-09-17 23:30:00
1:53 PM,84.0,69.1,61,30.01,10.0,NE,11.5,-,N/A,,Scattered Clouds,50,2012-09-17 23:53:00
2:15 PM,82.4,68.0,62,30.01,10.0,ENE,11.5,-,N/A,,Mostly Cloudy,60,2012-09-18 00:15:00
2:48 PM,80.6,68.0,65,30.00,10.0,NE,15.0,-,N/A,,Mostly Cloudy,50,2012-09-18 00:48:00
2:53 PM,82.0,68.0,62,29.99,10.0,ENE,12.7,-,N/A,,Mostly Cloudy,60,2012-09-18 00:53:00
3:53 PM,82.0,66.9,60,29.99,10.0,NE,12.7,-,N/A,,Clear,50,2012-09-18 01:53:00
4:33 PM,80.6,68.0,65,29.99,10.0,NE,10.4,-,N/A,,Mostly Cloudy,50,2012-09-18 02:33:00
4:40 PM,80.6,69.8,70,29.99,10.0,NE,12.7,-,N/A,,Scattered Clouds,50,2012-09-18 02:40:00
4:53 PM,80.1,69.1,69,29.98,10.0,NE,11.5,-,N/A,,Partly Cloudy,50,2012-09-18 02:53:00
5:53 PM,78.1,68.0,71,29.98,10.0,NE,13.8,-,N/A,,Scattered Clouds,50,2012-09-18 03:53:00
6:53 PM,77.0,68.0,74,29.99,10.0,ENE,11.5,-,N/A,,Scattered Clouds,60,2012-09-18 04:53:00
7:26 PM,77.0,68.0,74,30.01,10.0,ENE,13.8,-,N/A,,Mostly Cloudy,60,2012-09-18 05:26:00
7:51 PM,77.0,68.0,74,30.01,10.0,ENE,15.0,-,N/A,,Scattered Clouds,60,2012-09-18 05:51:00
7:53 PM,77.0,66.9,71,30.00,10.0,ENE,12.7,-,N/A,,Partly Cloudy,60,2012-09-18 05:53:00
8:53 PM,77.0,66.9,71,30.01,10.0,ENE,15.0,-,N/A,,Clear,70,2012-09-18 06:53:00
9:53 PM,77.0,68.0,74,30.03,10.0,ENE,17.3,-,N/A,,Scattered Clouds,70,2012-09-18 07:53:00
10:46 PM,77.0,68.0,74,30.03,10.0,ENE,16.1,-,N/A,,Overcast,70,2012-09-18 08:46:00
10:53 PM,77.0,66.9,71,30.02,10.0,ENE,19.6,-,N/A,,Mostly Cloudy,70,2012-09-18 08:53:00
11:01 PM,77.0,66.2,69,30.03,10.0,ENE,15.0,-,N/A,,Scattered Clouds,70,2012-09-18 09:01:00
11:35 PM,75.2,66.2,73,30.03,10.0,ENE,16.1,-,N/A,,Mostly Cloudy,70,2012-09-18 09:35:00
11:44 PM,75.2,66.2,73,30.02,10.0,ENE,17.3,-,N/A,,Scattered Clouds,70,2012-09-18 09:44:00
11:53 PM,75.9,66.9,74,30.01,10.0,ENE,15.0,-,N/A,,Scattered Clouds,70,2012-09-18 09:53:00